[[{"header":{"parameterUnit":"m.s-1","parameterCategory":2,"la1":30.2991,"la2":30.254,"lo1":-89.0895,"lo2":-89.0444,"dy":0.0017,"dx":0.0017,"nx":28,"ny":28,"refTime":"2026-01-07T03:00:00:Z","depth":"0","parameterNumber":2,"parameterNumberName":"U-component_of_CURRENTS"},"data":[0,0,0,0,0,0,0,0,0,0,0,0,0,0,0,0,0,0,0,0,0,0,0,0,0,0,0,0,0,0,0,0,0,0,0,0,0,0,0,0,0,0,0,0,0,0,0,0,0,0,0,0,0,0,0,0,0,0,0.2716,0.2716,0,0.2663,0.2662,0.2661,0.2627,0.2627,0.2627,0.2627,0.2572,0.257,0.2569,0,0,0,0,0,0,0,0,0,0,0,0,0,0.2755,0.2754,0.2717,0.2716,0.2716,0.2663,0.2662,0.2661,0.2627,0.2627,0.2627,0.2627,0.2572,0.2571,0.2569,0,0,0,0,0,0,0,0,0,0,0,0,0,0.2721,0.2754,0.2717,0.2694,0.2692,0.2663,0.2662,0.2661,0.2627,0.2627,0.2627,0.2627,0.2573,0.2571,0.2569,0.2554,0,0,0.2562,0.2561,0,0,0,0,0,0,0,0,0.2723,0.2719,0.2698,0.2696,0.2693,0.2654,0.2655,0.2626,0.2627,0.2649,0.2627,0.2627,0.2601,0.2596,0.2583,0.2551,0.2549,0.2562,0.256,0.2559,0.2559,0,0,0,0,0,0,0,0.2726,0.2721,0.2693,0.2698,0.2695,0.2675,0.267,0.2649,0.2623,0.2647,0.2645,0.2643,0.2599,0.2585,0.2581,0.2548,0.2562,0.256,0.2558,0.2557,0.2475,0.2474,0,0,0,0,0,0,0.2739,0.2724,0.2695,0.2691,0.2711,0.2675,0.2669,0.2664,0.2624,0.2618,0.2643,0.2642,0.2589,0.2584,0.2579,0.2534,0.2559,0.2557,0.2556,0.2475,0.2474,0.2473,0,0,0,0,0,0,0.274,0.2737,0.2697,0.2709,0.2702,0.2675,0.2669,0.2663,0.265,0.2621,0.2615,0.2636,0.2588,0.2582,0.2551,0.2532,0.2556,0.2554,0.2476,0.2475,0.2474,0.246,0,0,0,0,0,0,0.2741,0.2737,0.2731,0.2709,0.2702,0.2676,0.2669,0.2662,0.265,0.2647,0.2613,0.2607,0.2588,0.2555,0.2549,0.253,0.2552,0.2477,0.2476,0.2474,0.2461,0.2458,0.2455,0,0,0,0,0,0.2742,0.2728,0.2731,0.2728,0.2698,0.2676,0.267,0.2649,0.2649,0.2638,0.2613,0.2609,0.254,0.2552,0.2546,0.2525,0.2478,0.2476,0.2474,0.2463,0.2459,0.2456,0,0,0,0,0,0,0.2725,0.2724,0.2726,0.2708,0.2696,0.2671,0.2655,0.2651,0.2623,0.2621,0.2598,0.259,0.2555,0.2544,0.2558,0.2497,0.2509,0.2505,0.2502,0.2498,0.2495,0.2488,0.255,0,0,0,0,0,0.2726,0.2721,0.2715,0.2697,0.2695,0.268,0.2668,0.266,0.2637,0.2625,0.26,0.2572,0.2542,0.2524,0.2498,0.2466,0.2463,0.2449,0.2446,0.2444,0.2433,0.242,0.2415,0.2467,0.2467,0.2467,0,0,0.2708,0.2711,0.2703,0.2695,0.2683,0.2662,0.2671,0.2655,0.263,0.2624,0.2577,0.2564,0.2532,0.2492,0.2476,0.248,0.2428,0.2441,0.244,0.243,0.2417,0.2412,0.2408,0.2466,0.2466,0.2466,0,0,0.2673,0.2681,0.2666,0.2663,0.266,0.2649,0.2649,0.263,0.2616,0.2583,0.2568,0.2542,0.2497,0.2466,0.2446,0.2413,0.2416,0.2409,0.2383,0.2371,0.2366,0.2363,0.2357,0.2353,0.2404,0.2404,0.2404,0,0.2649,0.2635,0.2655,0.2644,0.2633,0.2644,0.2618,0.2603,0.2574,0.2557,0.2565,0.2494,0.2479,0.2419,0.2409,0.2405,0.2405,0.24,0.2368,0.2364,0.236,0.2356,0.2351,0.2403,0.2404,0.2404,0.2404,0,0.2605,0.2596,0.2586,0.2577,0.2571,0.2551,0.2548,0.2531,0.2525,0.2509,0.2465,0.2444,0.2401,0.2395,0.2391,0.235,0.2361,0.237,0.2379,0.2354,0.2351,0.2347,0.2402,0.2402,0.2403,0.2403,0,0,0.2521,0.2549,0.254,0.2534,0.2538,0.252,0.2494,0.2463,0.2438,0.2419,0.2376,0.2338,0.2345,0.2323,0.2319,0.2308,0.2292,0.233,0.233,0.2329,0.2272,0.2252,0.2246,0.2302,0.2301,0.23,0.2283,0,0.2467,0.2445,0.2473,0.243,0.2411,0.2432,0.2407,0.239,0.2378,0.2342,0.2328,0.2291,0.2312,0.2298,0.2289,0.2291,0.2279,0.2297,0.2292,0.2291,0.2281,0.2239,0.2196,0.2174,0.2278,0.2278,0.2277,0,0.2393,0.2394,0.2358,0.2367,0.2361,0.2339,0.2308,0.2292,0.2266,0.2264,0.2238,0.2237,0.2207,0.2238,0.2222,0.2236,0.2249,0.2256,0.2256,0.2236,0.2262,0.2214,0.2162,0.1939,0.2271,0.2271,0.2272,0,0.2303,0.2302,0.2273,0.2272,0.2284,0.2266,0.2265,0.2252,0.2235,0.2211,0.2196,0.2175,0.2157,0.2169,0.219,0.2209,0.218,0.2209,0.2198,0.2198,0.2156,0.2153,0.1889,0.2192,0.2192,0.2192,0.2192,0,0.2218,0.2178,0.223,0.2205,0.217,0.2206,0.2163,0.2166,0.2158,0.2124,0.2148,0.2113,0.2142,0.2133,0.2164,0.2159,0.2159,0.2177,0.2182,0.2151,0.2147,0.1949,0.1839,0.2192,0.2192,0.2192,0.2192,0,0.2088,0.2124,0.2092,0.212,0.2123,0.2092,0.2104,0.2079,0.2093,0.2048,0.204,0.2051,0.2051,0.2079,0.2093,0.2115,0.2028,0.2123,0.2087,0.2087,0.1877,0.177,0.162,0.1608,0.2106,0.2106,0.2105,0,0.2019,0.1996,0.2021,0.2009,0.2011,0.1992,0.1985,0.2024,0.2007,0.2001,0.1969,0.1967,0.1958,0.1977,0.2019,0.2055,0.196,0.2028,0.2049,0.1827,0.1712,0.171,0.1713,0.1996,0.1994,0.1993,0.1992,0,0.1902,0.1916,0.1908,0.1905,0.1898,0.1874,0.1871,0.1859,0.1896,0.1881,0.1864,0.1862,0.1888,0.1893,0.1941,0.1972,0.187,0.2004,0.1772,0.1584,0.1565,0.157,0.2048,0.1981,0.1982,0.1983,0.1984,0.1984,0.1825,0.1809,0.184,0.1822,0.1806,0.1779,0.1757,0.1758,0.175,0.1715,0.1752,0.1697,0.1729,0.1798,0.1824,0.171,0.1775,0.1636,0.1524,0.1545,0.1509,0.1961,0.1901,0.1902,0.1903,0.1903,0.1903,0,0.1784,0.1789,0.1766,0.1768,0.1736,0.1742,0.1705,0.1676,0.1661,0.1587,0.1574,0.1466,0.1454,0.1453,0.1362,0.1213,0.1307,0.1099,0.1034,0.107,0.1444,0.1409,0.1239,0.1239,0.124,0.124,0.124,0.124,0.1777,0.1774,0.1783,0.1746,0.1718,0.1668,0.1646,0.1574,0.1502,0.1336,0.1199,0.1152,0.0967,0.0719,0.0541,0.0589,0.0489,0.0494,0.0465,0.0602,0.0643,0.0682,0.0618,0.0286,0.0285,0.0182,0.0179,0.0177]},{"header":{"parameterUnit":"m.s-1","parameterCategory":2,"la1":30.2991,"la2":30.254,"lo1":-89.0895,"lo2":-89.0444,"dy":0.0017,"dx":0.0017,"nx":28,"ny":28,"refTime":"2026-01-07T03:00:00:Z","depth":"0","parameterNumber":3,"parameterNumberName":"V-component_of_CURRENTS"},"data":[0,0,0,0,0,0,0,0,0,0,0,0,0,0,0,0,0,0,0,0,0,0,0,0,0,0,0,0,0,0,0,0,0,0,0,0,0,0,0,0,0,0,0,0,0,0,0,0,0,0,0,0,0,0,0,0,0,0,-0.1301,-0.13,0,-0.1257,-0.1256,-0.1256,-0.1217,-0.1216,-0.1216,-0.1215,-0.1171,-0.117,-0.117,0,0,0,0,0,0,0,0,0,0,0,0,0,-0.1265,-0.1266,-0.1301,-0.13,-0.13,-0.1257,-0.1256,-0.1256,-0.1217,-0.1216,-0.1216,-0.1215,-0.1171,-0.117,-0.1169,0,0,0,0,0,0,0,0,0,0,0,0,0,-0.1257,-0.1267,-0.1301,-0.1275,-0.1273,-0.1257,-0.1256,-0.1255,-0.1217,-0.1216,-0.1216,-0.1215,-0.1172,-0.117,-0.1169,-0.1175,0,0,-0.1166,-0.1165,0,0,0,0,0,0,0,0,-0.1257,-0.1258,-0.128,-0.1277,-0.1274,-0.1242,-0.1227,-0.1229,-0.1217,-0.1238,-0.1215,-0.1215,-0.1195,-0.1192,-0.1185,-0.1173,-0.1171,-0.1166,-0.1165,-0.1164,-0.1164,0,0,0,0,0,0,0,-0.1258,-0.1259,-0.1283,-0.1279,-0.1276,-0.1236,-0.1235,-0.1227,-0.1221,-0.1236,-0.1233,-0.1229,-0.1194,-0.1186,-0.1184,-0.1171,-0.1166,-0.1165,-0.1164,-0.1164,-0.1122,-0.1122,0,0,0,0,0,0,-0.127,-0.1261,-0.1285,-0.1282,-0.1264,-0.1238,-0.1237,-0.1253,-0.1221,-0.1215,-0.1229,-0.1227,-0.1189,-0.1185,-0.1182,-0.1156,-0.1164,-0.1163,-0.1163,-0.1122,-0.1122,-0.1121,0,0,0,0,0,0,-0.1269,-0.1273,-0.1286,-0.1269,-0.1268,-0.124,-0.1258,-0.1252,-0.1245,-0.1216,-0.121,-0.1228,-0.1188,-0.1184,-0.117,-0.1155,-0.1163,-0.1162,-0.1123,-0.1122,-0.1122,-0.1124,0,0,0,0,0,0,-0.1269,-0.1274,-0.1287,-0.1271,-0.1269,-0.1283,-0.1258,-0.1252,-0.1243,-0.124,-0.1212,-0.1207,-0.1187,-0.1171,-0.1168,-0.1154,-0.1161,-0.1123,-0.1123,-0.1122,-0.1125,-0.1124,-0.1123,0,0,0,0,0,-0.1268,-0.1289,-0.1289,-0.1291,-0.129,-0.1283,-0.1279,-0.1256,-0.1244,-0.1246,-0.122,-0.1208,-0.1164,-0.1171,-0.1167,-0.1152,-0.1124,-0.1123,-0.1122,-0.1125,-0.1124,-0.1123,0,0,0,0,0,0,-0.1268,-0.1287,-0.1286,-0.1308,-0.13,-0.1277,-0.1277,-0.1262,-0.1244,-0.1241,-0.121,-0.1204,-0.1183,-0.1172,-0.118,-0.1137,-0.1139,-0.1138,-0.1143,-0.1142,-0.1141,-0.1132,-0.116,0,0,0,0,0,-0.1279,-0.1308,-0.1304,-0.132,-0.1323,-0.1303,-0.1296,-0.1283,-0.1265,-0.1256,-0.1232,-0.1205,-0.1177,-0.1165,-0.1145,-0.113,-0.1109,-0.1116,-0.1115,-0.1114,-0.1104,-0.1066,-0.1061,-0.1118,-0.1118,-0.1119,0,0,-0.1277,-0.1295,-0.1306,-0.1323,-0.1317,-0.1311,-0.1298,-0.1296,-0.1276,-0.1255,-0.1227,-0.1207,-0.1174,-0.1148,-0.1137,-0.1136,-0.1087,-0.1113,-0.1113,-0.1103,-0.1064,-0.1059,-0.1054,-0.1118,-0.1118,-0.1118,0,0,-0.1284,-0.1313,-0.1333,-0.1335,-0.1338,-0.1325,-0.1327,-0.131,-0.1293,-0.1271,-0.124,-0.1212,-0.1181,-0.1144,-0.1122,-0.1108,-0.1087,-0.1105,-0.109,-0.1053,-0.1048,-0.1043,-0.1012,-0.1004,-0.1101,-0.1101,-0.1101,0,-0.1272,-0.1305,-0.1331,-0.1344,-0.1336,-0.1332,-0.1325,-0.1311,-0.1284,-0.1262,-0.1264,-0.1192,-0.1172,-0.1115,-0.1106,-0.1104,-0.1084,-0.1097,-0.1052,-0.1047,-0.1041,-0.101,-0.1001,-0.1101,-0.1101,-0.1101,-0.1101,0,-0.129,-0.1308,-0.132,-0.1336,-0.1334,-0.1333,-0.1319,-0.1307,-0.1288,-0.1261,-0.1215,-0.1184,-0.1136,-0.1125,-0.1109,-0.1057,-0.1055,-0.1059,-0.1055,-0.1036,-0.1004,-0.0995,-0.1101,-0.1101,-0.1101,-0.1101,0,0,-0.1259,-0.1319,-0.1316,-0.1319,-0.1329,-0.1322,-0.1305,-0.1275,-0.1246,-0.1223,-0.1175,-0.1129,-0.1114,-0.1088,-0.1065,-0.1031,-0.0982,-0.103,-0.1028,-0.0999,-0.0901,-0.0893,-0.0883,-0.0979,-0.0977,-0.0976,-0.0895,0,-0.1247,-0.1273,-0.1302,-0.1292,-0.1294,-0.1294,-0.1273,-0.1248,-0.1223,-0.1181,-0.1144,-0.1099,-0.1099,-0.1074,-0.1041,-0.0994,-0.0957,-0.1003,-0.0923,-0.092,-0.0916,-0.0872,-0.0783,-0.0702,-0.0886,-0.0884,-0.0883,0,-0.1231,-0.1256,-0.1259,-0.1268,-0.1268,-0.1257,-0.1219,-0.1202,-0.1157,-0.114,-0.1099,-0.1074,-0.1014,-0.1025,-0.0936,-0.0966,-0.0931,-0.0901,-0.0898,-0.088,-0.0895,-0.0749,-0.0679,-0.0561,-0.0869,-0.087,-0.0871,0,-0.1176,-0.1208,-0.121,-0.1213,-0.123,-0.1216,-0.1211,-0.1179,-0.1156,-0.1109,-0.1087,-0.1028,-0.0989,-0.0939,-0.0889,-0.0906,-0.0795,-0.0813,-0.077,-0.077,-0.0671,-0.0665,-0.0474,-0.0744,-0.0745,-0.0745,-0.0745,0,-0.1136,-0.1122,-0.1187,-0.118,-0.1164,-0.1187,-0.1151,-0.1138,-0.1114,-0.1078,-0.1061,-0.102,-0.0966,-0.0905,-0.0867,-0.0786,-0.0777,-0.0749,-0.0739,-0.0671,-0.0666,-0.0544,-0.0502,-0.0742,-0.0743,-0.0743,-0.0744,0,-0.1041,-0.1092,-0.1088,-0.1126,-0.1136,-0.1115,-0.1124,-0.1097,-0.1092,-0.1044,-0.103,-0.0992,-0.0925,-0.0871,-0.0781,-0.075,-0.0605,-0.0658,-0.0587,-0.0571,-0.0439,-0.0403,-0.026,-0.0205,-0.059,-0.0589,-0.0589,0,-0.0993,-0.099,-0.1038,-0.1038,-0.1048,-0.1046,-0.1042,-0.1067,-0.1051,-0.1024,-0.0994,-0.0935,-0.0882,-0.0761,-0.0688,-0.0605,-0.0547,-0.0482,-0.0501,-0.0396,-0.0347,-0.0367,-0.0333,-0.0367,-0.0365,-0.0363,-0.0361,0,-0.0887,-0.0908,-0.091,-0.0935,-0.0944,-0.0949,-0.0956,-0.0955,-0.0976,-0.0947,-0.0905,-0.0867,-0.0776,-0.0648,-0.0558,-0.0502,-0.0376,-0.0441,-0.0326,-0.0144,-0.0153,-0.0108,-0.047,-0.0343,-0.0345,-0.0346,-0.0347,-0.0348,-0.0789,-0.0775,-0.0806,-0.0809,-0.0831,-0.0841,-0.0827,-0.0844,-0.0826,-0.0776,-0.0797,-0.0705,-0.0583,-0.0451,-0.0384,-0.018,-0.0261,-0.0101,-0.0061,-0.0091,-0.0036,-0.0374,-0.0252,-0.0253,-0.0254,-0.0255,-0.0256,0,-0.0668,-0.0676,-0.0679,-0.0699,-0.07,-0.0745,-0.0755,-0.0739,-0.0706,-0.0666,-0.0615,-0.0449,-0.0268,-0.0149,0.0075,0.0204,0.021,0.028,0.0321,0.0338,0.0075,0.0088,0.0283,0.0283,0.0282,0.0282,0.0282,0.0282,-0.0603,-0.0575,-0.0592,-0.0572,-0.0591,-0.0591,-0.0589,-0.0571,-0.0544,-0.044,-0.0337,-0.0298,-0.0144,0.0277,0.0544,0.0582,0.0674,0.0672,0.0673,0.0555,0.0523,0.0493,0.0518,0.0799,0.08,0.0943,0.0946,0.0947]}],[{"header":{"parameterUnit":"m.s-1","parameterCategory":2,"la1":30.2991,"la2":30.254,"lo1":-89.0895,"lo2":-89.0444,"dy":0.0017,"dx":0.0017,"nx":28,"ny":28,"refTime":"2026-01-07T03:00:00:Z","depth":"2","parameterNumber":2,"parameterNumberName":"U-component_of_CURRENTS"},"data":[0,0,0,0,0,0,0,0,0,0,0,0,0,0,0,0,0,0,0,0,0,0,0,0,0,0,0,0,0,0,0,0,0,0,0,0,0,0,0,0,0,0,0,0,0,0,0,0,0,0,0,0,0,0,0,0,0,0,0.0551,0.0551,0,0.0545,0.0545,0.0545,0.0543,0.0542,0.0542,0.0542,0.059,0.0591,0.0593,0,0,0,0,0,0,0,0,0,0,0,0,0,0.0556,0.0556,0.0551,0.0551,0.055,0.0545,0.0545,0.0545,0.0543,0.0542,0.0542,0.0542,0.059,0.0591,0.0593,0,0,0,0,0,0,0,0,0,0,0,0,0,0.0553,0.0556,0.0551,0.0548,0.0547,0.0545,0.0545,0.0545,0.0543,0.0542,0.0542,0.0542,0.0589,0.0591,0.0593,0.0608,0,0,0.0599,0.06,0,0,0,0,0,0,0,0,0.0553,0.0553,0.0548,0.0548,0.0547,0.0543,0.0564,0.0568,0.0543,0.0546,0.0542,0.0542,0.0579,0.0582,0.0582,0.061,0.0613,0.0599,0.0601,0.0602,0.0602,0,0,0,0,0,0,0,0.0553,0.0553,0.055,0.0548,0.0548,0.0545,0.0545,0.0565,0.0565,0.0545,0.0545,0.0542,0.0579,0.058,0.0583,0.0613,0.0599,0.0601,0.0602,0.0603,0.0755,0.0758,0,0,0,0,0,0,0.0552,0.0553,0.055,0.0549,0.0549,0.0545,0.0545,0.0546,0.0563,0.0565,0.0543,0.0542,0.0576,0.0581,0.0585,0.0648,0.0602,0.0603,0.0605,0.0752,0.0755,0.0759,0,0,0,0,0,0,0.0553,0.0552,0.055,0.055,0.055,0.0545,0.0546,0.0546,0.0562,0.0561,0.0564,0.0561,0.0576,0.0582,0.0632,0.0648,0.0604,0.0606,0.0749,0.0753,0.0757,0.0746,0,0,0,0,0,0,0.0553,0.0552,0.0568,0.055,0.0549,0.056,0.0546,0.0546,0.0559,0.056,0.0578,0.0581,0.0577,0.0629,0.0634,0.065,0.0608,0.0745,0.0751,0.0756,0.0743,0.0749,0.0755,0,0,0,0,0,0.0553,0.0567,0.0569,0.0569,0.0566,0.0561,0.0561,0.0558,0.0561,0.0572,0.0597,0.0581,0.0666,0.0633,0.0638,0.0655,0.0743,0.0749,0.0755,0.074,0.0748,0.0755,0,0,0,0,0,0,0.0584,0.0567,0.0569,0.058,0.0578,0.056,0.0574,0.0571,0.0598,0.0609,0.0609,0.0615,0.0666,0.0679,0.0642,0.0723,0.0705,0.0713,0.0692,0.07,0.0706,0.0694,0.0609,0,0,0,0,0,0.0597,0.0601,0.0587,0.0601,0.0601,0.0594,0.0598,0.0594,0.0606,0.0617,0.063,0.0662,0.0694,0.0711,0.0741,0.078,0.0786,0.0803,0.0809,0.0814,0.0814,0.0857,0.0866,0.0779,0.0779,0.0779,0,0,0.0613,0.0606,0.061,0.0609,0.0608,0.0611,0.0597,0.0607,0.0619,0.062,0.0659,0.0683,0.0714,0.0756,0.0781,0.0767,0.0841,0.0822,0.0824,0.0823,0.0865,0.0872,0.0879,0.0784,0.0783,0.0782,0,0,0.0633,0.0643,0.0647,0.0647,0.0647,0.0642,0.065,0.0646,0.0658,0.0692,0.0704,0.0745,0.0787,0.0808,0.0825,0.0892,0.0874,0.0908,0.0918,0.096,0.0966,0.0971,0.0968,0.0974,0.0906,0.0906,0.0906,0,0.0657,0.0657,0.0652,0.0654,0.0658,0.0658,0.0665,0.0677,0.0694,0.0711,0.0712,0.0788,0.0811,0.086,0.0881,0.09,0.0907,0.0873,0.0962,0.0968,0.0974,0.097,0.0975,0.0907,0.0907,0.0907,0.0907,0,0.0665,0.0677,0.0682,0.0684,0.0692,0.0701,0.0705,0.0729,0.0745,0.0751,0.0807,0.0838,0.0877,0.0898,0.0904,0.0962,0.0946,0.096,0.0927,0.098,0.0974,0.098,0.0907,0.0907,0.0907,0.0907,0,0,0.0682,0.0686,0.0691,0.0697,0.0708,0.0712,0.0744,0.0764,0.0782,0.0815,0.0839,0.0903,0.0909,0.0933,0.0949,0.0985,0.1023,0.0986,0.0988,0.0953,0.1083,0.103,0.1031,0.1047,0.1049,0.105,0.1053,0,0.0691,0.0701,0.0702,0.0724,0.0728,0.0743,0.0768,0.0793,0.0812,0.0837,0.0878,0.0907,0.0925,0.0934,0.0979,0.1008,0.1044,0.1019,0.1064,0.1064,0.0986,0.1039,0.0844,0.0827,0.1059,0.106,0.106,0,0.0691,0.0699,0.0717,0.0737,0.0741,0.0758,0.0792,0.081,0.0846,0.0859,0.0894,0.091,0.0957,0.0969,0.1044,0.1023,0.106,0.1085,0.1087,0.1045,0.1024,0.0821,0.083,0.1071,0.107,0.1069,0.1068,0,0.0692,0.0709,0.0727,0.0733,0.0756,0.0775,0.079,0.0822,0.0832,0.0863,0.0863,0.0922,0.0933,0.1003,0.104,0.1048,0.111,0.1128,0.1117,0.1111,0.0959,0.0937,0.1206,0.1206,0.1206,0.1206,0.1206,0,0.0692,0.0706,0.073,0.0739,0.0763,0.0776,0.0799,0.0818,0.0833,0.0846,0.0867,0.0879,0.0947,0.098,0.1036,0.1074,0.1109,0.1122,0.112,0.095,0.0929,0.1158,0.1153,0.1206,0.1206,0.1206,0.1206,0,0.0683,0.0701,0.0721,0.0752,0.0763,0.0778,0.0793,0.0807,0.081,0.0821,0.0824,0.0845,0.0883,0.0932,0.102,0.1047,0.1103,0.1116,0.0884,0.0857,0.1074,0.1069,0.1106,0.1104,0.1103,0.1102,0.1101,0,0.0678,0.0687,0.0728,0.0745,0.0759,0.0779,0.0796,0.0803,0.0801,0.0807,0.0808,0.0827,0.0843,0.0903,0.0926,0.0975,0.107,0.0852,0.0857,0.1075,0.107,0.1067,0.1064,0.0637,0.0632,0.0628,0.0625,0,0.0663,0.0685,0.0705,0.0738,0.0763,0.0777,0.0788,0.0778,0.0787,0.0761,0.077,0.0779,0.0801,0.0715,0.0733,0.0781,0.0824,0.078,0.1069,0.0703,0.0637,0.0631,0.0642,0.0591,0.0594,0.0597,0.0599,0.06,0.0657,0.0665,0.0697,0.0721,0.0754,0.0763,0.0755,0.0747,0.0713,0.0655,0.0717,0.0634,0.0609,0.0524,0.0544,0.0553,0.0661,0.0618,0.0628,0.0642,0.0598,0.0535,0.0459,0.0461,0.0464,0.0465,0.0467,0,0.0622,0.0642,0.0672,0.0692,0.0693,0.0737,0.0741,0.0691,0.063,0.0569,0.055,0.0355,0.0275,0.0279,0.0186,0.0238,0.0269,0.027,0.0221,0.0251,0.0279,0.0218,-0.0023,-0.0023,-0.0023,-0.0023,0,0,0.0609,0.061,0.0619,0.0613,0.0635,0.0623,0.0621,0.0544,0.0472,0.0282,0.0156,0.0242,0.0184,0.0031,0.0035,-0.0047,0.0141,-0.0007,0.0361,0.0327,0.0356,0.0431,0.0364,0,0,0,0,0]},{"header":{"parameterUnit":"m.s-1","parameterCategory":2,"la1":30.2991,"la2":30.254,"lo1":-89.0895,"lo2":-89.0444,"dy":0.0017,"dx":0.0017,"nx":28,"ny":28,"refTime":"2026-01-07T03:00:00:Z","depth":"2","parameterNumber":3,"parameterNumberName":"V-component_of_CURRENTS"},"data":[0,0,0,0,0,0,0,0,0,0,0,0,0,0,0,0,0,0,0,0,0,0,0,0,0,0,0,0,0,0,0,0,0,0,0,0,0,0,0,0,0,0,0,0,0,0,0,0,0,0,0,0,0,0,0,0,0,0,0.0429,0.0429,0,0.0451,0.0451,0.0451,0.0399,0.0397,0.0396,0.0394,0.0331,0.0331,0.0331,0,0,0,0,0,0,0,0,0,0,0,0,0,0.0349,0.0351,0.0429,0.0429,0.0429,0.045,0.0451,0.0451,0.0399,0.0397,0.0395,0.0393,0.0331,0.0331,0.0331,0,0,0,0,0,0,0,0,0,0,0,0,0,0.0379,0.0352,0.0429,0.0406,0.0404,0.045,0.0451,0.0451,0.04,0.0397,0.0395,0.0392,0.0331,0.0331,0.0331,0.038,0,0,0.033,0.033,0,0,0,0,0,0,0,0,0.0378,0.0382,0.0409,0.0407,0.0405,0.0419,0.04,0.0423,0.04,0.0402,0.0394,0.0391,0.0354,0.0352,0.0363,0.0378,0.0375,0.033,0.033,0.033,0.033,0,0,0,0,0,0,0,0.0376,0.0381,0.0438,0.0409,0.0407,0.0396,0.0398,0.0404,0.0391,0.0401,0.0398,0.04,0.0352,0.0364,0.0361,0.0374,0.033,0.033,0.033,0.033,0.0347,0.0348,0,0,0,0,0,0,0.0375,0.038,0.0437,0.0438,0.0384,0.04,0.0401,0.0418,0.0392,0.0387,0.0402,0.0398,0.0365,0.0362,0.0359,0.0337,0.033,0.033,0.033,0.0347,0.0347,0.0348,0,0,0,0,0,0,0.0374,0.0381,0.0436,0.0408,0.0414,0.0404,0.0422,0.0419,0.0395,0.0394,0.0386,0.0377,0.0363,0.0359,0.0347,0.0337,0.033,0.033,0.0346,0.0347,0.0348,0.0345,0,0,0,0,0,0,0.0372,0.038,0.0375,0.0409,0.0416,0.0449,0.0425,0.0422,0.0403,0.0396,0.037,0.0364,0.0361,0.0347,0.0347,0.0336,0.0329,0.0345,0.0346,0.0347,0.0344,0.0345,0.0346,0,0,0,0,0,0.0369,0.0373,0.0375,0.0381,0.0415,0.0449,0.0452,0.0436,0.0404,0.0402,0.0383,0.0363,0.0353,0.0348,0.0347,0.0336,0.0345,0.0346,0.0347,0.0343,0.0345,0.0346,0,0,0,0,0,0,0.0321,0.037,0.0372,0.0386,0.0409,0.0439,0.0426,0.0423,0.041,0.0383,0.0375,0.037,0.0357,0.0354,0.0349,0.0347,0.0344,0.0345,0.0341,0.0343,0.0344,0.0351,0.0329,0,0,0,0,0,0.0316,0.0334,0.0377,0.0382,0.0391,0.0405,0.0407,0.0403,0.0405,0.0394,0.038,0.0366,0.0372,0.0359,0.0363,0.0364,0.0372,0.0356,0.0357,0.0358,0.0366,0.0383,0.0386,0.0352,0.0352,0.0352,0,0,0.0294,0.0323,0.0329,0.0373,0.0382,0.041,0.0398,0.0396,0.041,0.0391,0.0378,0.0369,0.0375,0.0377,0.0369,0.0363,0.0371,0.036,0.036,0.0367,0.0385,0.0388,0.0391,0.0353,0.0353,0.0353,0,0,0.0276,0.029,0.0304,0.0332,0.0354,0.0378,0.0373,0.0393,0.0385,0.039,0.038,0.0373,0.0365,0.0381,0.0387,0.0402,0.0381,0.0382,0.0385,0.0402,0.0405,0.0407,0.0415,0.0418,0.0376,0.0376,0.0376,0,0.0238,0.028,0.0308,0.0336,0.0352,0.0364,0.0384,0.0399,0.0408,0.041,0.0377,0.0386,0.038,0.041,0.0404,0.0405,0.0398,0.0376,0.0403,0.0406,0.0408,0.0416,0.0419,0.0376,0.0376,0.0376,0.0376,0,0.0255,0.0276,0.0282,0.0333,0.0355,0.0369,0.0408,0.0411,0.0394,0.0411,0.0412,0.0413,0.0412,0.0411,0.0405,0.0423,0.0406,0.0405,0.0397,0.0411,0.0418,0.0422,0.0376,0.0376,0.0376,0.0376,0,0,0.02,0.0278,0.0275,0.0301,0.0353,0.0376,0.0403,0.0445,0.0453,0.0447,0.0461,0.0466,0.0441,0.0448,0.0439,0.045,0.0456,0.0419,0.042,0.0422,0.0472,0.0477,0.0482,0.0442,0.0443,0.0444,0.0466,0,0.0196,0.0247,0.029,0.0328,0.036,0.0393,0.0425,0.0456,0.0466,0.0483,0.049,0.0482,0.0464,0.0433,0.0452,0.0461,0.0466,0.045,0.0462,0.0463,0.0462,0.0487,0.0526,0.055,0.047,0.0471,0.0471,0,0.0205,0.0241,0.0273,0.0343,0.0355,0.0366,0.0411,0.044,0.0483,0.048,0.0485,0.0484,0.0501,0.0469,0.0502,0.048,0.0468,0.0477,0.0478,0.0489,0.0476,0.0525,0.056,0.0478,0.0477,0.0477,0.0476,0,0.0172,0.0234,0.0254,0.0276,0.0349,0.0343,0.0364,0.041,0.0424,0.0448,0.0441,0.0486,0.0461,0.049,0.0488,0.0481,0.0524,0.0526,0.053,0.0529,0.0572,0.0575,0.0545,0.0545,0.0545,0.0544,0.0544,0,0.0179,0.0194,0.0222,0.0235,0.0243,0.0293,0.0292,0.0325,0.0352,0.0361,0.04,0.0408,0.0453,0.0482,0.0501,0.0528,0.053,0.0542,0.0542,0.0571,0.0573,0.0519,0.0516,0.0545,0.0545,0.0545,0.0545,0,0.0154,0.0177,0.0199,0.0231,0.0225,0.0215,0.0221,0.0237,0.0251,0.0259,0.0248,0.0327,0.0361,0.0421,0.0471,0.0519,0.0563,0.0559,0.0585,0.0589,0.0557,0.0553,0.0598,0.0599,0.0599,0.0599,0.06,0,0.0155,0.0158,0.0163,0.0152,0.0147,0.0132,0.0131,0.016,0.0173,0.0209,0.0218,0.0248,0.0304,0.0412,0.052,0.0597,0.0532,0.0629,0.0643,0.057,0.0566,0.0562,0.0557,0.0696,0.0697,0.0698,0.0698,0,0.0151,0.0129,0.0149,0.0118,0.0091,0.0092,0.0078,0.008,0.0116,0.0157,0.0209,0.0254,0.0348,0.049,0.0574,0.0618,0.0638,0.0649,0.0578,0.067,0.0663,0.0658,0.0651,0.0706,0.0705,0.0705,0.0704,0.0704,0.0125,0.0131,0.013,0.0109,0.0076,0.0061,0.0052,0.0076,0.0126,0.0173,0.0221,0.0301,0.0422,0.06,0.0622,0.0649,0.0706,0.0708,0.0705,0.0702,0.0704,0.0697,0.0746,0.0746,0.0745,0.0745,0.0745,0,0.0123,0.0133,0.0125,0.0117,0.0102,0.006,0.0038,0.0056,0.0116,0.0176,0.024,0.0383,0.0531,0.0555,0.0669,0.0743,0.0727,0.0664,0.0657,0.0656,0.0653,0.0648,0.0678,0.0676,0.0674,0.0673,0,0,0.0127,0.0145,0.0164,0.0157,0.0124,0.006,0.0036,0.0071,0.0097,0.0206,0.0275,0.0419,0.0546,0.0577,0.0663,0.065,0.0597,0.0615,0.0696,0.0683,0.0675,0.0743,0.0744,0,0,0,0,0]}],[{"header":{"parameterUnit":"m.s-1","parameterCategory":2,"la1":30.2991,"la2":30.254,"lo1":-89.0895,"lo2":-89.0444,"dy":0.0017,"dx":0.0017,"nx":28,"ny":28,"refTime":"2026-01-07T03:00:00:Z","depth":"4","parameterNumber":2,"parameterNumberName":"U-component_of_CURRENTS"},"data":[0,0,0,0,0,0,0,0,0,0,0,0,0,0,0,0,0,0,0,0,0,0,0,0,0,0,0,0,0,0,0,0,0,0,0,0,0,0,0,0,0,0,0,0,0,0,0,0,0,0,0,0,0,0,0,0,0,0,-0.052,-0.052,0,-0.0518,-0.0518,-0.0518,-0.0528,-0.0529,-0.0529,-0.0529,-0.0525,-0.0525,-0.0525,0,0,0,0,0,0,0,0,0,0,0,0,0,-0.0516,-0.0516,-0.052,-0.052,-0.052,-0.0518,-0.0518,-0.0518,-0.0528,-0.0529,-0.0529,-0.0529,-0.0526,-0.0525,-0.0525,0,0,0,0,0,0,0,0,0,0,0,0,0,-0.0516,-0.0516,-0.052,-0.0525,-0.0526,-0.0518,-0.0518,-0.0518,-0.0528,-0.0529,-0.0529,-0.053,-0.0526,-0.0525,-0.0525,-0.0512,0,0,-0.0523,-0.0523,0,0,0,0,0,0,0,0,-0.0516,-0.0516,-0.0525,-0.0525,-0.0525,-0.0524,-0.0515,-0.0516,-0.0528,-0.0527,-0.0529,-0.053,-0.0525,-0.0524,-0.0523,-0.0512,-0.0512,-0.0523,-0.0522,-0.0522,-0.0522,0,0,0,0,0,0,0,-0.0516,-0.0516,-0.052,-0.0524,-0.0525,-0.0522,-0.0522,-0.0515,-0.0523,-0.0527,-0.0528,-0.0528,-0.0525,-0.0523,-0.0523,-0.0512,-0.0523,-0.0522,-0.0522,-0.0522,-0.0527,-0.0528,0,0,0,0,0,0,-0.0517,-0.0516,-0.052,-0.0519,-0.0522,-0.0521,-0.0522,-0.0524,-0.0523,-0.0524,-0.0527,-0.0528,-0.0524,-0.0523,-0.0522,-0.0495,-0.0522,-0.0522,-0.0521,-0.0527,-0.0527,-0.0528,0,0,0,0,0,0,-0.0517,-0.0517,-0.052,-0.0518,-0.0518,-0.0521,-0.0523,-0.0524,-0.0531,-0.0524,-0.0524,-0.0535,-0.0524,-0.0523,-0.0528,-0.0496,-0.0521,-0.0521,-0.0526,-0.0527,-0.0528,-0.0449,0,0,0,0,0,0,-0.0517,-0.0517,-0.0522,-0.0518,-0.0518,-0.0519,-0.0523,-0.0523,-0.053,-0.0531,-0.053,-0.053,-0.0525,-0.0529,-0.0527,-0.0496,-0.052,-0.0526,-0.0527,-0.0527,-0.0451,-0.0447,-0.0443,0,0,0,0,0,-0.0517,-0.052,-0.0523,-0.0523,-0.0524,-0.0519,-0.0519,-0.0522,-0.053,-0.0531,-0.0536,-0.053,-0.0534,-0.0529,-0.0527,-0.0494,-0.0525,-0.0526,-0.0527,-0.0453,-0.0448,-0.0444,0,0,0,0,0,0,-0.0521,-0.0521,-0.0524,-0.0528,-0.0526,-0.0521,-0.0525,-0.0527,-0.0531,-0.0536,-0.0533,-0.0533,-0.0524,-0.0535,-0.0529,-0.0506,-0.0529,-0.053,-0.0473,-0.0469,-0.0465,-0.0459,-0.052,0,0,0,0,0,-0.0523,-0.0528,-0.0524,-0.0529,-0.0529,-0.0529,-0.0529,-0.053,-0.0532,-0.0535,-0.0537,-0.054,-0.0526,-0.052,-0.0522,-0.0505,-0.0532,-0.0489,-0.0485,-0.0481,-0.048,-0.0516,-0.0515,-0.0532,-0.0532,-0.0532,0,0,-0.0528,-0.0528,-0.0532,-0.0531,-0.0531,-0.0531,-0.0531,-0.0532,-0.053,-0.0533,-0.0539,-0.0529,-0.0524,-0.0504,-0.05,-0.0506,-0.0489,-0.0483,-0.0479,-0.048,-0.0517,-0.0515,-0.0514,-0.0532,-0.0532,-0.0532,0,0,-0.0529,-0.0538,-0.0538,-0.0538,-0.0537,-0.0537,-0.054,-0.054,-0.0538,-0.053,-0.0532,-0.0516,-0.0504,-0.0489,-0.0477,-0.0462,-0.0474,-0.0458,-0.0417,-0.0452,-0.045,-0.0449,-0.0463,-0.0464,-0.0447,-0.0447,-0.0447,0,-0.0532,-0.0535,-0.0537,-0.0535,-0.0541,-0.0542,-0.0545,-0.0537,-0.054,-0.053,-0.0529,-0.0505,-0.0494,-0.046,-0.0436,-0.0448,-0.0467,-0.0423,-0.0444,-0.0444,-0.0444,-0.0459,-0.0461,-0.0443,-0.0444,-0.0444,-0.0445,0,-0.0529,-0.0535,-0.0537,-0.0539,-0.0545,-0.0548,-0.0542,-0.0537,-0.0531,-0.0518,-0.0492,-0.0475,-0.0454,-0.0438,-0.0414,-0.0398,-0.0409,-0.0437,-0.0446,-0.0437,-0.0454,-0.0458,-0.0438,-0.0439,-0.0441,-0.0441,0,0,-0.0524,-0.0533,-0.0535,-0.0538,-0.055,-0.055,-0.0543,-0.0529,-0.0514,-0.0496,-0.0481,-0.0423,-0.0406,-0.0394,-0.0373,-0.0377,-0.0367,-0.0386,-0.039,-0.0383,-0.0425,-0.0367,-0.0366,-0.0393,-0.0394,-0.0394,-0.043,0,-0.0521,-0.0525,-0.0533,-0.0541,-0.0544,-0.0546,-0.0536,-0.0522,-0.0505,-0.049,-0.0455,-0.0434,-0.0392,-0.0367,-0.036,-0.0378,-0.0375,-0.0354,-0.0451,-0.0454,-0.0389,-0.0368,-0.0396,-0.0433,-0.0433,-0.0434,-0.0434,0,-0.0509,-0.0519,-0.0529,-0.0535,-0.0536,-0.0533,-0.0522,-0.0513,-0.0485,-0.0468,-0.0435,-0.0422,-0.0391,-0.0381,-0.0388,-0.0374,-0.0381,-0.0399,-0.0402,-0.0379,-0.0402,-0.0452,-0.0441,-0.0441,-0.044,-0.044,-0.0439,0,-0.0496,-0.051,-0.0523,-0.0529,-0.0536,-0.0523,-0.0516,-0.0494,-0.0482,-0.0458,-0.0449,-0.0425,-0.0415,-0.0428,-0.0413,-0.0408,-0.045,-0.0467,-0.0425,-0.0421,-0.0498,-0.05,-0.0488,-0.0488,-0.0488,-0.0488,-0.0488,0,-0.0481,-0.0489,-0.051,-0.0512,-0.0506,-0.0512,-0.049,-0.0472,-0.0462,-0.0445,-0.0431,-0.0415,-0.0427,-0.0436,-0.0434,-0.0422,-0.0468,-0.0408,-0.0425,-0.0463,-0.0461,-0.05,-0.05,-0.0489,-0.0489,-0.0489,-0.0488,0,-0.0455,-0.0475,-0.0482,-0.0494,-0.0494,-0.0481,-0.0472,-0.0452,-0.0447,-0.0433,-0.0427,-0.042,-0.0416,-0.0428,-0.0461,-0.0442,-0.0456,-0.0445,-0.0468,-0.0488,-0.04,-0.0397,-0.0408,-0.0406,-0.0405,-0.0403,-0.0402,0,-0.0441,-0.0446,-0.0466,-0.0463,-0.0463,-0.0451,-0.0437,-0.0433,-0.0422,-0.0422,-0.0415,-0.0413,-0.0398,-0.0398,-0.0417,-0.0427,-0.0418,-0.0429,-0.041,-0.0376,-0.0392,-0.0391,-0.039,-0.04,-0.0399,-0.0399,-0.0399,0,-0.0421,-0.0432,-0.0439,-0.0438,-0.0426,-0.0419,-0.04,-0.0398,-0.0396,-0.04,-0.0375,-0.0363,-0.0359,-0.0361,-0.0366,-0.0375,-0.0427,-0.0413,-0.0416,-0.0398,-0.0366,-0.0383,-0.0384,-0.0393,-0.0394,-0.0395,-0.0395,0,-0.0411,-0.0406,-0.042,-0.0412,-0.0405,-0.0392,-0.0383,-0.0366,-0.036,-0.0361,-0.035,-0.0347,-0.0349,-0.0334,-0.0343,-0.0337,-0.0331,-0.033,-0.0337,-0.0344,-0.0303,-0.0252,-0.0248,0,0,0,0,0,-0.04,-0.0398,-0.0396,-0.039,-0.0381,-0.0381,-0.0369,-0.0366,-0.037,-0.0336,-0.034,-0.0323,-0.0305,-0.0309,-0.029,-0.0328,-0.035,-0.0306,-0.0357,-0.0364,-0.037,-0.0326,0,0,0,0,0,0,-0.0394,-0.0396,-0.0396,-0.0382,-0.0376,-0.0366,-0.0362,-0.0361,-0.0339,-0.0337,-0.0325,-0.031,-0.0299,-0.0313,-0.0287,-0.0288,-0.0314,-0.0301,-0.03,-0.036,-0.0366,-0.0371,-0.0328,0,0,0,0,0]},{"header":{"parameterUnit":"m.s-1","parameterCategory":2,"la1":30.2991,"la2":30.254,"lo1":-89.0895,"lo2":-89.0444,"dy":0.0017,"dx":0.0017,"nx":28,"ny":28,"refTime":"2026-01-07T03:00:00:Z","depth":"4","parameterNumber":3,"parameterNumberName":"V-component_of_CURRENTS"},"data":[0,0,0,0,0,0,0,0,0,0,0,0,0,0,0,0,0,0,0,0,0,0,0,0,0,0,0,0,0,0,0,0,0,0,0,0,0,0,0,0,0,0,0,0,0,0,0,0,0,0,0,0,0,0,0,0,0,0,0.0415,0.0415,0,0.0421,0.0421,0.0421,0.0443,0.0443,0.0444,0.0444,0.0453,0.0453,0.0452,0,0,0,0,0,0,0,0,0,0,0,0,0,0.0392,0.0392,0.0415,0.0415,0.0415,0.0421,0.0421,0.0421,0.0443,0.0443,0.0444,0.0445,0.0453,0.0453,0.0452,0,0,0,0,0,0,0,0,0,0,0,0,0,0.0399,0.0392,0.0415,0.0427,0.0429,0.0421,0.0421,0.0421,0.0443,0.0443,0.0444,0.0445,0.0453,0.0453,0.0452,0.0432,0,0,0.0451,0.0451,0,0,0,0,0,0,0,0,0.0399,0.04,0.0425,0.0427,0.0428,0.0433,0.0416,0.0425,0.0442,0.0436,0.0444,0.0445,0.0446,0.0446,0.0444,0.0433,0.0433,0.0451,0.045,0.045,0.045,0,0,0,0,0,0,0,0.0398,0.04,0.0416,0.0425,0.0427,0.0422,0.0424,0.0417,0.0436,0.0437,0.0439,0.044,0.0447,0.0445,0.0445,0.0433,0.0451,0.045,0.045,0.045,0.0449,0.045,0,0,0,0,0,0,0.04,0.04,0.0416,0.0417,0.0416,0.0422,0.0424,0.043,0.0436,0.0438,0.044,0.0441,0.0445,0.0445,0.0445,0.0467,0.045,0.045,0.045,0.0449,0.0449,0.045,0,0,0,0,0,0,0.0399,0.0402,0.0416,0.0409,0.041,0.0422,0.0427,0.0429,0.044,0.0438,0.044,0.045,0.0446,0.0446,0.0438,0.0465,0.045,0.0449,0.0449,0.0449,0.0449,0.0481,0,0,0,0,0,0,0.0399,0.0401,0.0408,0.0409,0.0411,0.0412,0.0426,0.0429,0.0439,0.0442,0.0447,0.0448,0.0447,0.0438,0.0437,0.0465,0.0449,0.0448,0.0449,0.0449,0.0479,0.0482,0.0484,0,0,0,0,0,0.0398,0.0405,0.0409,0.0411,0.0419,0.0412,0.0412,0.0423,0.0439,0.0437,0.0438,0.0448,0.0442,0.0437,0.0436,0.0464,0.0448,0.0449,0.0449,0.0478,0.0481,0.0484,0,0,0,0,0,0,0.0398,0.0408,0.0412,0.0422,0.0417,0.0416,0.0422,0.0427,0.0428,0.0435,0.0438,0.0438,0.0451,0.0442,0.0437,0.0465,0.0452,0.0453,0.0475,0.0478,0.048,0.0478,0.0448,0,0,0,0,0,0.04,0.041,0.0409,0.0416,0.0417,0.0421,0.0422,0.0425,0.0425,0.0428,0.0434,0.0441,0.045,0.045,0.0454,0.0452,0.0445,0.0473,0.0476,0.0478,0.0475,0.0457,0.0458,0.0452,0.0452,0.0452,0,0,0.0401,0.0408,0.0413,0.0417,0.0419,0.041,0.0424,0.0426,0.0434,0.0427,0.0445,0.0451,0.0452,0.0463,0.0468,0.0458,0.0483,0.0479,0.0481,0.0476,0.0458,0.0458,0.0459,0.0452,0.0452,0.0452,0,0,0.0397,0.0415,0.0416,0.0411,0.0412,0.0412,0.0414,0.0418,0.0441,0.0455,0.0455,0.0457,0.0486,0.0472,0.0476,0.0486,0.0501,0.0513,0.0518,0.0501,0.0502,0.0502,0.0522,0.0523,0.0508,0.0508,0.0508,0,0.0398,0.0399,0.0412,0.0405,0.0414,0.0413,0.0414,0.0422,0.0425,0.0439,0.0472,0.0488,0.049,0.0478,0.0498,0.0493,0.0504,0.0509,0.0505,0.0504,0.0504,0.0524,0.0525,0.051,0.0509,0.0509,0.0509,0,0.0387,0.0387,0.0388,0.0384,0.0395,0.0391,0.0408,0.0416,0.0459,0.0467,0.0497,0.0499,0.0506,0.0517,0.0524,0.0518,0.0538,0.0516,0.0497,0.0506,0.0528,0.0528,0.0512,0.0511,0.0511,0.051,0,0,0.0391,0.0382,0.0383,0.0385,0.039,0.0397,0.0414,0.0426,0.0433,0.0468,0.0487,0.0515,0.0522,0.0524,0.052,0.0508,0.0532,0.0525,0.0524,0.0547,0.0536,0.0535,0.0536,0.0519,0.0519,0.0519,0.0564,0,0.0378,0.0366,0.0378,0.0376,0.0373,0.0393,0.041,0.0423,0.0455,0.0461,0.0478,0.0501,0.0524,0.0543,0.0533,0.0522,0.0532,0.0524,0.0522,0.0522,0.052,0.0534,0.0517,0.0564,0.0564,0.0564,0.0564,0,0.0362,0.0361,0.0376,0.038,0.0387,0.0415,0.0451,0.045,0.0448,0.0481,0.049,0.0499,0.0495,0.052,0.0518,0.0522,0.0546,0.0542,0.0543,0.0526,0.052,0.0545,0.0565,0.0565,0.0565,0.0565,0.0565,0,0.0363,0.0356,0.0384,0.0387,0.0397,0.0453,0.0467,0.0479,0.0488,0.0493,0.0509,0.0495,0.0518,0.0517,0.0536,0.054,0.0532,0.0523,0.0545,0.0547,0.0521,0.052,0.0532,0.0532,0.0532,0.0532,0.0532,0,0.0344,0.0352,0.0407,0.0418,0.0469,0.0484,0.0526,0.0532,0.0535,0.0532,0.053,0.0527,0.0526,0.052,0.053,0.0543,0.0534,0.0553,0.055,0.0538,0.0538,0.0523,0.0522,0.0534,0.0533,0.0533,0.0533,0,0.0334,0.0354,0.0373,0.0432,0.0476,0.0517,0.0578,0.0574,0.0591,0.0591,0.0604,0.0573,0.0571,0.0561,0.0551,0.0551,0.0543,0.0556,0.0569,0.0566,0.058,0.0579,0.0586,0.0586,0.0587,0.0587,0.0587,0,0.0321,0.0341,0.041,0.0444,0.05,0.0564,0.06,0.0624,0.0613,0.0611,0.06,0.0608,0.0594,0.0566,0.0552,0.0563,0.0566,0.0578,0.0562,0.0585,0.0582,0.0581,0.058,0.0587,0.0587,0.0587,0.0587,0,0.0306,0.0349,0.0378,0.0457,0.0535,0.0557,0.0617,0.0619,0.0621,0.0641,0.0612,0.0607,0.0594,0.0559,0.058,0.0578,0.0563,0.0579,0.0579,0.0564,0.0586,0.0582,0.0581,0.0588,0.0587,0.0587,0.0587,0,0.0311,0.0334,0.0397,0.0469,0.0528,0.0556,0.0574,0.0591,0.0597,0.0609,0.0594,0.0588,0.0587,0.0568,0.0565,0.0579,0.0585,0.0584,0.0584,0.0583,0.0558,0.0583,0.0585,0,0,0,0,0,0.0314,0.0352,0.04,0.0468,0.0509,0.0551,0.0581,0.0579,0.0605,0.0593,0.0602,0.0591,0.0595,0.0558,0.0574,0.0568,0.0583,0.0586,0.0582,0.059,0.0589,0.0558,0,0,0,0,0,0,0.0314,0.0366,0.04,0.0464,0.0496,0.0545,0.0556,0.0567,0.054,0.0564,0.0545,0.0591,0.0567,0.0594,0.0572,0.0575,0.0573,0.0594,0.0594,0.059,0.059,0.0589,0.0557,0,0,0,0,0]}]]